User: anonymous   Login
Location: Unspecified
(0.0000°N, 0.0000°E)
Time: 21:42:11
(UTC+00:00)
Language:

Vela 5A - Orbit

View from above orbital plane
View from above orbital plane
View from above satellite
View from above satellite

Ground track
Ground track

The orbit data is extracted from the following two-line orbital elements,

1 03954U 69046D   14298.28567926 -.00000368  00000-0  00000+0 0   195
2 03954 056.3241 281.2699 7599375 084.7315 000.2645 00.21486668 35673
Epoch (UTC): 25 October 2014 06:51:22
Eccentricity: 0.7599375
inclination: 56.3241°
perigee height: 21888 km
apogee height: 200850 km
right ascension of ascending node: 281.2699°
argument of perigee: 84.7315°
revolutions per day: 0.21486668
mean anomaly at epoch: 0.2645°
orbit number at epoch: 3567

The dashed part of the orbit path shows where the satellite is in the earth's shadow,  

DLR